Regional Weather Roundup
Issued by NWS State College, PA

Home | Current Version | Previous Version | Graphics & Text | Print | Product List | Glossary Off
Versions: 1 2 3 4 5 6 7 8 9 10 11 12 13 14 15 16 17 18 19 20 21 22 23 24 25 26 27 28 29 30 31 32 33 34 35 36 37 38 39 40 41 42 43 44 45 46 47 48 49 50

000
ASUS41 KCTP 240503
RWRCTP

REGIONAL WEATHER ROUNDUP
NATIONAL WEATHER SERVICE STATE COLLEGE PA
1200 AM EST SAT FEB 24 2018

Note: "fair" indicates few or no clouds below 12,000 feet with no
significant weather and/or obstructions to visibility.

* = STATION THAT DOES NOT REPORT PRECIPITATION /E.G. RAIN...SNOW...ETC/
    THUNDER OR FOG.

PAZ002>004-007>009-013>016-020>023-029>032-240600-
WESTERN PENNSYLVANIA

CITY           SKY/WX    TMP DP  RH WIND       PRES   REMARKS
ERIE           CLOUDY    45  42  89 W8        30.19S
MEADVILLE      CLOUDY    45  45 100 W5        30.18S
FRANKLIN*      CLOUDY    47  46  97 W10       30.17F
NEW CASTLE     MOCLDY    51  50  96 NW3       30.19S
BEAVER COUNTY  NOT AVBL
BUTLER*        CLOUDY    53  51  93 NW7       30.17R
PITTSBURGH INT CLOUDY    59  54  83 W8        30.16S
PITTSBURGH     MOCLDY    58  53  84 SW8       30.16S
INDIANA*       CLOUDY    59  57  94 W9G17     30.19S
LATROBE        MOCLDY    57  57 100 SW8       30.17F
WASHINGTON CO* NOT AVBL
$$

PAZ004>006-010>012-017>019-024>028-033>037-041-042-045-046-049>053-240600-
CENTRAL PENNSYLVANIA

CITY           SKY/WX    TMP DP  RH WIND       PRES   REMARKS
BRADFORD       FOG       46  46 100 W8        30.13S VSB 3/4
DUBOIS         CLOUDY    51  49  92 NW10      30.14R FOG
CLEARFIELD     CLOUDY    42  41  96 CALM      30.14S
JOHNSTOWN      CLOUDY    57  53  86 W13       30.16S
ALTOONA        FOG       39  39 100 CALM      30.17F VSB 1/4
STATE COLLEGE  CLOUDY    41  40  98 CALM      30.15S FOG
WILLIAMSPORT   CLOUDY    40  40 100 CALM      30.17F FOG
SELINSGROVE    CLOUDY    41  40  96 S5        30.19F FOG
FT INDIANTOWN  FOG       41  41 100 SW5       30.20F VSB 1/2
CAPITAL CITY   CLOUDY    45  43  93 W6        30.21F FOG
HARRISBURG     CLOUDY    44  42  93 VRB3      30.20F FOG
YORK           CLOUDY    44  44 100 SW6       30.21F
$$

PAZ038>040-043-044-047-048-054-055-060>062-067>071-240600-
EASTERN PENNSYLVANIA

CITY           SKY/WX    TMP DP  RH WIND       PRES   REMARKS
SCRANTON       CLOUDY    39  38  96 SW7       30.17F FOG
MOUNT POCONO   CLOUDY    35  35 100 W13       30.12  FOG
ALLENTOWN      FOG       41  39  93 W3        30.20F VSB 1/2
QUAKERTOWN*    CLOUDY    41  41 100 SW7       30.20S FOG
READING        CLOUDY    43  43 100 SW5       30.21F FOG
LANCASTER      CLOUDY    43  42  97 SW7       30.21F FOG
COATESVILLE    FOG       41  41 100 VRB6G13   30.23S VSB 1/2
POTTSTOWN      CLOUDY    41  41 100 SW5       30.21F
BLUE BELL      CLOUDY    41  41 100 SW6       30.23S
DOYLESTOWN     CLOUDY    42  42 100 SW7       30.18F FOG
WILLOW GROVE   NOT AVBL
NORTH PHILA    CLOUDY    46  43  89 W10       30.23F
PHILADELPHIA   CLOUDY    44  43  96 SW13      30.23S
$$




USA.gov is the U.S. government's official web portal to all federal, state and local government web resources and services.